Time,TemperatureF,DewpointF,PressureIn,WindDirection,WindDirectionDegrees,WindSpeedMPH,WindSpeedGustMPH,Humidity,HourlyPrecipIn,Conditions,Clouds,dailyrainin,SoftwareType,DateUTC
2013-01-30 00:12:00,69.7,66.0,30.08,SE,126,4.0,7.0,88,0.00,,,0.00,weatherlink.com 1.10,2013-01-30 05:12:00,
2013-01-30 00:27:00,69.6,66.0,30.08,SE,135,3.0,8.0,88,0.00,,,0.00,weatherlink.com 1.10,2013-01-30 05:27:00,
2013-01-30 00:43:00,69.4,66.0,30.08,SE,133,3.0,6.0,89,0.00,,,0.00,weatherlink.com 1.10,2013-01-30 05:43:00,
2013-01-30 00:58:00,69.3,66.0,30.08,ESE,115,3.0,7.0,89,0.00,,,0.00,weatherlink.com 1.10,2013-01-30 05:58:00,
2013-01-30 01:13:00,69.2,66.0,30.08,SE,135,5.0,7.0,89,0.00,,,0.00,weatherlink.com 1.10,2013-01-30 06:13:00,
2013-01-30 01:28:00,68.9,66.0,30.08,SE,144,5.0,9.0,90,0.00,,,0.00,weatherlink.com 1.10,2013-01-30 06:28:00,
2013-01-30 01:44:00,68.8,66.0,30.08,SSE,147,5.0,9.0,90,0.00,,,0.00,weatherlink.com 1.10,2013-01-30 06:44:00,
2013-01-30 01:59:00,68.7,65.0,30.08,SE,134,6.0,9.0,89,0.00,,,0.00,weatherlink.com 1.10,2013-01-30 06:59:00,
2013-01-30 02:14:00,68.5,65.0,30.07,SE,143,5.0,8.0,89,0.00,,,0.00,weatherlink.com 1.10,2013-01-30 07:14:00,
2013-01-30 02:29:00,68.4,65.0,30.07,SE,136,4.0,9.0,89,0.00,,,0.00,weatherlink.com 1.10,2013-01-30 07:29:00,
2013-01-30 02:44:00,68.3,65.0,30.07,SE,140,6.0,8.0,89,0.00,,,0.00,weatherlink.com 1.10,2013-01-30 07:44:00,
2013-01-30 02:58:00,68.3,65.0,30.07,SE,136,3.0,6.0,89,0.00,,,0.00,weatherlink.com 1.10,2013-01-30 07:58:00,
2013-01-30 03:14:00,68.1,65.0,30.06,SE,136,4.0,6.0,89,0.00,,,0.00,weatherlink.com 1.10,2013-01-30 08:14:00,
2013-01-30 03:30:00,68.0,65.0,30.06,East,100,1.0,10.0,89,0.00,,,0.00,weatherlink.com 1.10,2013-01-30 08:30:00,
2013-01-30 03:45:00,68.0,65.0,30.05,SE,141,4.0,9.0,89,0.00,,,0.00,weatherlink.com 1.10,2013-01-30 08:45:00,
2013-01-30 04:00:00,67.7,65.0,30.04,SE,145,7.0,10.0,90,0.00,,,0.00,weatherlink.com 1.10,2013-01-30 09:00:00,
2013-01-30 04:14:00,67.7,65.0,30.04,SE,143,6.0,8.0,90,0.00,,,0.00,weatherlink.com 1.10,2013-01-30 09:14:00,
2013-01-30 04:29:00,67.6,65.0,30.04,SE,139,3.0,8.0,90,0.00,,,0.00,weatherlink.com 1.10,2013-01-30 09:29:00,
2013-01-30 04:44:00,67.9,65.0,30.04,ESE,106,4.0,8.0,89,0.00,,,0.00,weatherlink.com 1.10,2013-01-30 09:44:00,
2013-01-30 04:59:00,68.0,64.0,30.04,SE,136,5.0,10.0,88,0.00,,,0.00,weatherlink.com 1.10,2013-01-30 09:59:00,
2013-01-30 05:16:00,67.8,65.0,30.04,ESE,123,4.0,6.0,89,0.00,,,0.00,weatherlink.com 1.10,2013-01-30 10:16:00,
2013-01-30 05:31:00,67.7,64.0,30.04,SE,130,1.0,5.0,89,0.00,,,0.00,weatherlink.com 1.10,2013-01-30 10:31:00,
2013-01-30 05:46:00,67.5,65.0,30.04,SE,136,2.0,5.0,90,0.00,,,0.00,weatherlink.com 1.10,2013-01-30 10:46:00,
2013-01-30 06:01:00,67.2,64.0,30.04,SE,134,2.0,5.0,90,0.00,,,0.00,weatherlink.com 1.10,2013-01-30 11:01:00,
2013-01-30 06:17:00,67.1,64.0,30.04,SE,134,2.0,5.0,90,0.00,,,0.00,weatherlink.com 1.10,2013-01-30 11:17:00,
2013-01-30 06:31:00,67.0,64.0,30.04,SE,134,2.0,4.0,91,0.00,,,0.00,weatherlink.com 1.10,2013-01-30 11:31:00,
2013-01-30 06:46:00,66.9,64.0,30.05,SE,134,2.0,4.0,91,0.00,,,0.00,weatherlink.com 1.10,2013-01-30 11:46:00,
2013-01-30 07:03:00,67.2,65.0,30.05,SE,139,2.0,6.0,91,0.00,,,0.00,weatherlink.com 1.10,2013-01-30 12:03:00,
2013-01-30 07:16:00,67.2,65.0,30.05,SE,138,5.0,7.0,91,0.00,,,0.00,weatherlink.com 1.10,2013-01-30 12:16:00,
2013-01-30 07:31:00,67.4,65.0,30.05,SE,142,3.0,7.0,90,0.00,,,0.00,weatherlink.com 1.10,2013-01-30 12:31:00,
2013-01-30 07:46:00,67.9,65.0,30.05,SE,141,6.0,6.0,90,0.00,,,0.00,weatherlink.com 1.10,2013-01-30 12:46:00,
2013-01-30 08:01:00,68.9,66.0,30.05,SSE,147,3.0,6.0,89,0.00,,,0.00,weatherlink.com 1.10,2013-01-30 13:01:00,
2013-01-30 08:16:00,70.1,66.0,30.05,SE,144,3.0,10.0,86,0.00,,,0.00,weatherlink.com 1.10,2013-01-30 13:16:00,
2013-01-30 08:31:00,70.9,66.0,30.05,SE,140,5.0,8.0,84,0.00,,,0.00,weatherlink.com 1.10,2013-01-30 13:31:00,
2013-01-30 08:46:00,71.7,66.0,30.05,SSE,152,1.0,7.0,83,0.00,,,0.00,weatherlink.com 1.10,2013-01-30 13:46:00,
2013-01-30 09:02:00,72.3,67.0,30.05,SE,142,1.0,8.0,83,0.00,,,0.00,weatherlink.com 1.10,2013-01-30 14:02:00,
2013-01-30 09:18:00,73.2,67.0,30.05,SSE,153,3.0,9.0,82,0.00,,,0.00,weatherlink.com 1.10,2013-01-30 14:18:00,
2013-01-30 09:33:00,74.1,68.0,30.05,South,171,7.0,8.0,80,0.00,,,0.00,weatherlink.com 1.10,2013-01-30 14:33:00,
2013-01-30 09:48:00,74.5,68.0,30.04,SSE,160,3.0,11.0,79,0.00,,,0.00,weatherlink.com 1.10,2013-01-30 14:48:00,
2013-01-30 10:02:00,75.0,68.0,30.04,South,177,4.0,10.0,78,0.00,,,0.00,weatherlink.com 1.10,2013-01-30 15:02:00,
2013-01-30 10:17:00,74.9,68.0,30.04,SSE,158,4.0,12.0,78,0.00,,,0.00,weatherlink.com 1.10,2013-01-30 15:17:00,
2013-01-30 10:32:00,75.1,68.0,30.03,South,188,7.0,14.0,78,0.00,,,0.00,weatherlink.com 1.10,2013-01-30 15:32:00,
2013-01-30 10:48:00,75.7,68.0,30.02,SSE,153,7.0,14.0,77,0.00,,,0.00,weatherlink.com 1.10,2013-01-30 15:48:00,
2013-01-30 11:03:00,76.0,68.0,30.01,South,171,9.0,16.0,76,0.00,,,0.00,weatherlink.com 1.10,2013-01-30 16:03:00,
2013-01-30 11:18:00,76.7,68.0,30.00,SSE,153,2.0,9.0,75,0.00,,,0.00,weatherlink.com 1.10,2013-01-30 16:18:00,
2013-01-30 11:33:00,76.5,68.0,29.99,SSE,161,4.0,11.0,75,0.00,,,0.00,weatherlink.com 1.10,2013-01-30 16:33:00,
2013-01-30 11:48:00,77.1,68.0,29.99,SSE,150,6.0,9.0,74,0.00,,,0.00,weatherlink.com 1.10,2013-01-30 16:48:00,
2013-01-30 12:04:00,76.4,68.0,29.98,South,184,4.0,9.0,76,0.00,,,0.00,weatherlink.com 1.10,2013-01-30 17:04:00,
2013-01-30 12:18:00,76.2,68.0,29.98,SSE,167,6.0,12.0,76,0.00,,,0.00,weatherlink.com 1.10,2013-01-30 17:18:00,
2013-01-30 12:34:00,75.6,68.0,29.98,SSE,165,5.0,12.0,77,0.00,,,0.00,weatherlink.com 1.10,2013-01-30 17:34:00,
2013-01-30 12:49:00,75.4,68.0,29.96,SSE,158,7.0,13.0,78,0.00,,,0.00,weatherlink.com 1.10,2013-01-30 17:49:00,
2013-01-30 13:04:00,75.6,68.0,29.97,SSE,160,5.0,13.0,77,0.00,,,0.00,weatherlink.com 1.10,2013-01-30 18:04:00,
2013-01-30 13:20:00,75.6,68.0,29.97,WSW,239,6.0,10.0,77,0.00,,,0.00,weatherlink.com 1.10,2013-01-30 18:20:00,
2013-01-30 13:34:00,75.3,68.0,29.97,SSW,196,5.0,9.0,77,0.00,,,0.00,weatherlink.com 1.10,2013-01-30 18:34:00,
2013-01-30 13:49:00,75.5,67.0,29.98,SW,216,4.0,8.0,76,0.00,,,0.00,weatherlink.com 1.10,2013-01-30 18:49:00,
2013-01-30 14:04:00,75.5,68.0,29.99,South,175,3.0,9.0,78,0.00,,,0.00,weatherlink.com 1.10,2013-01-30 19:04:00,
2013-01-30 14:19:00,75.8,69.0,29.99,SSE,168,1.0,5.0,78,0.00,,,0.00,weatherlink.com 1.10,2013-01-30 19:19:00,
2013-01-30 14:34:00,74.7,68.0,29.99,South,171,3.0,8.0,80,0.00,,,0.00,weatherlink.com 1.10,2013-01-30 19:34:00,
2013-01-30 14:49:00,74.8,68.0,29.98,SSE,167,9.0,9.0,79,0.00,,,0.00,weatherlink.com 1.10,2013-01-30 19:49:00,
2013-01-30 15:04:00,74.6,68.0,29.98,South,174,6.0,11.0,80,0.00,,,0.00,weatherlink.com 1.10,2013-01-30 20:04:00,
2013-01-30 15:20:00,74.3,68.0,29.97,South,171,6.0,11.0,81,0.00,,,0.00,weatherlink.com 1.10,2013-01-30 20:20:00,
2013-01-30 15:35:00,74.0,68.0,29.97,SSE,152,5.0,11.0,82,0.00,,,0.00,weatherlink.com 1.10,2013-01-30 20:35:00,
2013-01-30 15:51:00,74.0,68.0,29.98,South,182,5.0,10.0,81,0.00,,,0.00,weatherlink.com 1.10,2013-01-30 20:51:00,
2013-01-30 16:06:00,73.8,68.0,29.97,South,178,7.0,12.0,81,0.00,,,0.00,weatherlink.com 1.10,2013-01-30 21:06:00,
2013-01-30 16:21:00,73.6,68.0,29.97,South,187,8.0,12.0,82,0.00,,,0.00,weatherlink.com 1.10,2013-01-30 21:21:00,
2013-01-30 16:35:00,73.6,68.0,29.96,SSE,166,5.0,9.0,82,0.00,,,0.00,weatherlink.com 1.10,2013-01-30 21:35:00,
2013-01-30 16:50:00,73.4,68.0,29.96,SSW,198,7.0,11.0,83,0.00,,,0.00,weatherlink.com 1.10,2013-01-30 21:50:00,
2013-01-30 17:05:00,73.2,68.0,29.96,SSE,162,5.0,9.0,83,0.00,,,0.00,weatherlink.com 1.10,2013-01-30 22:05:00,
2013-01-30 17:21:00,73.1,68.0,29.96,SSE,167,3.0,10.0,83,0.00,,,0.00,weatherlink.com 1.10,2013-01-30 22:21:00,
2013-01-30 17:36:00,73.0,68.0,29.96,SSW,198,3.0,7.0,83,0.00,,,0.00,weatherlink.com 1.10,2013-01-30 22:36:00,
2013-01-30 17:51:00,72.8,68.0,29.97,WSW,247,3.0,8.0,84,0.00,,,0.00,weatherlink.com 1.10,2013-01-30 22:51:00,
2013-01-30 18:06:00,72.7,68.0,29.97,South,173,3.0,7.0,84,0.00,,,0.00,weatherlink.com 1.10,2013-01-30 23:06:00,
2013-01-30 18:21:00,72.4,68.0,29.96,SSE,161,2.0,9.0,85,0.00,,,0.00,weatherlink.com 1.10,2013-01-30 23:21:00,
2013-01-30 18:36:00,72.1,68.0,29.96,SSE,166,2.0,6.0,86,0.00,,,0.00,weatherlink.com 1.10,2013-01-30 23:36:00,
2013-01-30 18:51:00,71.7,68.0,29.96,SSE,159,1.0,7.0,87,0.00,,,0.00,weatherlink.com 1.10,2013-01-30 23:51:00,
2013-01-30 19:06:00,71.8,68.0,29.95,SSE,158,3.0,6.0,87,0.00,,,0.00,weatherlink.com 1.10,2013-01-31 00:06:00,
2013-01-30 19:22:00,72.1,68.0,29.95,SSE,168,3.0,6.0,86,0.00,,,0.00,weatherlink.com 1.10,2013-01-31 00:22:00,
2013-01-30 19:37:00,72.0,68.0,29.96,SSE,166,3.0,5.0,86,0.00,,,0.00,weatherlink.com 1.10,2013-01-31 00:37:00,
2013-01-30 19:51:00,71.7,68.0,29.96,SSE,165,2.0,5.0,87,0.00,,,0.00,weatherlink.com 1.10,2013-01-31 00:51:00,
2013-01-30 20:07:00,71.6,68.0,29.96,SSE,165,4.0,6.0,87,0.00,,,0.00,weatherlink.com 1.10,2013-01-31 01:07:00,
2013-01-30 20:22:00,71.7,68.0,29.97,SSE,163,4.0,6.0,88,0.00,,,0.00,weatherlink.com 1.10,2013-01-31 01:22:00,
2013-01-30 20:37:00,71.6,68.0,29.98,SSE,163,2.0,6.0,88,0.00,,,0.00,weatherlink.com 1.10,2013-01-31 01:37:00,
2013-01-30 20:53:00,71.4,68.0,29.98,SSE,160,1.0,5.0,89,0.00,,,0.00,weatherlink.com 1.10,2013-01-31 01:53:00,
2013-01-30 21:08:00,71.2,68.0,29.98,SSE,160,1.0,3.0,90,0.00,,,0.00,weatherlink.com 1.10,2013-01-31 02:08:00,
2013-01-30 21:22:00,71.0,68.0,29.96,SSE,165,2.0,6.0,90,0.00,,,0.00,weatherlink.com 1.10,2013-01-31 02:22:00,
2013-01-30 21:38:00,70.9,68.0,29.96,SSE,165,2.0,6.0,91,0.00,,,0.00,weatherlink.com 1.10,2013-01-31 02:38:00,
2013-01-30 21:53:00,71.1,68.0,29.96,SSW,194,4.0,8.0,91,0.00,,,0.00,weatherlink.com 1.10,2013-01-31 02:53:00,
2013-01-30 22:07:00,71.0,68.0,29.96,SSE,165,4.0,7.0,91,0.00,,,0.00,weatherlink.com 1.10,2013-01-31 03:07:00,
2013-01-30 22:23:00,71.0,69.0,29.96,South,181,7.0,9.0,92,0.00,,,0.00,weatherlink.com 1.10,2013-01-31 03:23:00,
2013-01-30 22:37:00,71.0,69.0,29.97,South,176,5.0,9.0,92,0.00,,,0.00,weatherlink.com 1.10,2013-01-31 03:37:00,
2013-01-30 22:53:00,71.0,69.0,29.97,SSE,159,4.0,8.0,92,0.00,,,0.00,weatherlink.com 1.10,2013-01-31 03:53:00,
2013-01-30 23:08:00,71.0,69.0,29.97,South,175,4.0,9.0,92,0.00,,,0.00,weatherlink.com 1.10,2013-01-31 04:08:00,
2013-01-30 23:23:00,71.0,69.0,29.97,SSE,166,3.0,8.0,92,0.00,,,0.00,weatherlink.com 1.10,2013-01-31 04:23:00,
2013-01-30 23:39:00,71.0,69.0,29.96,South,189,4.0,9.0,92,0.00,,,0.00,weatherlink.com 1.10,2013-01-31 04:39:00,
2013-01-30 23:54:00,71.1,69.0,29.97,SSE,148,3.0,9.0,92,0.00,,,0.00,weatherlink.com 1.10,2013-01-31 04:54:00,